CW0214 Weather Reports


Display with metric or nautical units.
time (UTC)temp
F
wind
direction
speed
MPH
gust
MPH
rain 1hr
in
rain 24hr
in
rain mn
in
humidity
%
barometer
mb
20260503033405 55 97 0.0 0.0 0.00 0.00 0.00 92 1015.2
20260503032905 55 97 0.0 0.0 0.00 0.00 0.00 92 1015.4
20260503031905 56 97 0.0 1.0 0.00 0.00 0.00 92 1015.4
20260503031405 56 97 0.0 0.0 0.00 0.00 0.00 91 1015.4
20260503030904 56 97 0.0 0.0 0.00 0.00 0.00 91 1015.4
20260503030405 56 97 0.0 0.0 0.00 0.00 0.00 91 1015.4
20260503025904 56 97 0.0 3.0 0.00 0.00 0.00 91 1015.4
20260503025405 56 97 0.0 1.0 0.00 0.00 0.00 91 1015.4
20260503024905 57 97 0.0 3.0 0.00 0.00 0.00 91 1015.6
20260503024405 57 97 0.0 3.0 0.00 0.00 0.00 91 1015.6
20260503023906 57 97 0.0 1.0 0.00 0.00 0.00 91 1015.7
20260503023404 57 97 0.0 2.0 0.00 0.00 0.00 91 1015.7
20260503022904 57 97 0.0 2.0 0.00 0.00 0.00 91 1015.7
20260503022405 57 97 1.0 3.0 0.00 0.00 0.00 91 1015.7
20260503021405 57 97 0.0 0.0 0.00 0.00 0.00 90 1015.8
20260503020404 57 97 0.0 0.0 0.00 0.00 0.00 90 1015.8
20260503013904 57 97 0.0 1.0 0.00 0.00 0.00 90 1015.9
20260503013405 57 97 1.0 2.0 0.00 0.00 0.00 90 1016.0
20260503012905 57 97 0.0 0.0 0.00 0.00 0.00 90 1016.0
20260503012405 57 97 0.0 0.0 0.00 0.00 0.00 90 1016.0
20260503011905 57 97 0.0 0.0 0.00 0.00 0.00 90 1016.1
20260503011405 57 97 0.0 0.0 0.00 0.00 0.00 90 1016.1
20260503010905 57 97 0.0 0.0 0.00 0.00 0.00 89 1016.2
20260503005905 58 97 0.0 1.0 0.00 0.00 0.00 89 1016.2
20260503005405 58 97 0.0 3.0 0.00 0.00 0.00 89 1016.3
20260503004905 58 97 0.0 2.0 0.00 0.00 0.00 89 1016.3
20260503004404 58 97 0.0 0.0 0.00 0.00 0.00 88 1016.3
20260503003905 58 97 0.0 0.0 0.00 0.00 0.00 89 1016.4
20260503003405 58 97 0.0 0.0 0.00 0.00 0.00 88 1016.4
20260503002905 58 97 0.0 0.0 0.00 0.00 0.00 89 1016.5
20260503002406 58 97 0.0 1.0 0.00 0.00 0.00 88 1016.5
20260503001905 58 97 0.0 2.0 0.00 0.00 0.00 88 1016.5
20260503000905 58 97 0.0 0.0 0.00 0.00 0.00 88 1016.5
20260503000404 58 97 0.0 0.0 0.00 0.00 0.00 88 1016.6
20260502235906 58 97 0.0 0.0 0.00 0.00 0.00 88 1016.6
20260502234904 59 97 1.0 3.0 0.00 0.00 0.00 87 1016.7
20260502233905 59 97 0.0 3.0 0.00 0.00 0.00 87 1016.8
20260502233405 59 97 1.0 3.0 0.00 0.00 0.00 87 1016.8
20260502232905 59 97 1.0 3.0 0.00 0.00 0.00 86 1016.8
20260502232404 59 98 2.0 7.0 0.00 0.00 0.00 86 1016.8
20260502231905 60 84 1.0 5.0 0.00 0.00 0.00 85 1016.8
20260502231405 60 72 3.0 6.0 0.00 0.00 0.00 85 1016.7
20260502230904 60 104 2.0 8.0 0.00 0.00 0.00 85 1016.7
20260502225905 60 102 1.0 5.0 0.00 0.00 0.00 84 1016.8
20260502225405 60 102 5.0 9.0 0.00 0.00 0.00 84 1016.8
20260502224905 60 101 5.0 10.0 0.00 0.00 0.00 83 1016.7
20260502223407 61 116 3.0 10.0 0.00 0.00 0.00 83 1016.8
20260502222404 61 95 2.0 7.0 0.00 0.00 0.00 83 1016.7
20260502221905 61 99 3.0 7.0 0.00 0.00 0.00 83 1016.7
20260502221405 61 113 3.0 6.0 0.00 0.00 0.00 83 1016.7
20260502220404 61 107 1.0 5.0 0.00 0.00 0.00 83 1016.7
20260502215904 61 117 1.0 6.0 0.00 0.00 0.00 84 1016.7
20260502215404 61 132 1.0 7.0 0.00 0.00 0.00 84 1016.7
20260502214905 61 94 2.0 8.0 0.00 0.00 0.00 85 1016.7
20260502213905 61 61 2.0 10.0 0.00 0.00 0.00 86 1016.6
20260502213405 61 94 5.0 9.0 0.00 0.00 0.00 86 1016.6
20260502212905 61 96 1.0 8.0 0.00 0.00 0.00 87 1016.7
20260502212405 62 94 5.0 9.0 0.00 0.00 0.00 87 1016.7
20260502211906 62 124 3.0 7.0 0.00 0.00 0.00 87 1016.6
20260502211406 62 101 3.0 7.0 0.00 0.00 0.00 88 1016.6
20260502210904 62 92 4.0 10.0 0.00 0.00 0.00 88 1016.5
20260502210405 62 96 1.0 6.0 0.00 0.00 0.00 88 1016.4
20260502205905 62 165 3.0 7.0 0.00 0.00 0.00 88 1016.4
20260502205405 62 135 3.0 10.0 0.00 0.00 0.00 88 1016.4
20260502204904 62 156 1.0 8.0 0.00 0.00 0.00 88 1016.4
20260502204405 62 129 3.0 7.0 0.00 0.00 0.00 87 1016.3
20260502203904 62 136 1.0 6.0 0.00 0.00 0.00 87 1016.2
20260502203404 62 137 4.0 9.0 0.00 0.00 0.00 86 1016.2
20260502202905 63 135 3.0 7.0 0.00 0.00 0.00 86 1016.2
20260502201904 63 140 2.0 6.0 0.00 0.00 0.00 85 1016.1
20260502201405 63 136 1.0 6.0 0.00 0.00 0.00 85 1016.1
20260502200905 63 144 2.0 5.0 0.00 0.00 0.00 85 1016.1
20260502200405 63 151 1.0 6.0 0.00 0.00 0.00 85 1016.0
20260502195904 63 143 2.0 5.0 0.00 0.00 0.00 84 1016.1
20260502195408 64 125 2.0 7.0 0.00 0.00 0.00 83 1015.9
20260502194904 64 113 1.0 5.0 0.00 0.00 0.00 83 1015.9
20260502193904 64 88 0.0 5.0 0.00 0.00 0.00 82 1015.8
20260502193405 64 61 2.0 5.0 0.00 0.00 0.00 81 1015.7
20260502192408 65 102 0.0 3.0 0.00 0.00 0.00 78 1015.6
20260502191907 65 105 1.0 3.0 0.00 0.00 0.00 77 1015.6
20260502191407 66 108 0.0 3.0 0.00 0.00 0.00 76 1015.4
20260502190906 66 108 1.0 3.0 0.00 0.00 0.00 75 1015.4
20260502190407 66 108 0.0 1.0 0.00 0.00 0.00 75 1015.5
20260502185906 66 108 0.0 3.0 0.00 0.00 0.00 75 1015.5
20260502184906 66 108 0.0 3.0 0.00 0.00 0.00 75 1015.5
20260502184407 66 108 0.0 1.0 0.00 0.00 0.00 74 1015.4
20260502183906 66 108 0.0 6.0 0.00 0.00 0.00 74 1015.5
20260502183407 66 108 0.0 3.0 0.00 0.00 0.00 74 1015.5
20260502182907 66 108 2.0 3.0 0.00 0.00 0.00 74 1015.5
20260502181907 66 119 1.0 5.0 0.00 0.00 0.00 73 1015.6
20260502181407 66 128 2.0 6.0 0.00 0.00 0.00 73 1015.7
20260502180907 67 71 2.0 7.0 0.00 0.00 0.00 73 1015.6
20260502163912 67 84 1.0 8.0 0.00 0.00 0.00 71 1016.2
20260502162407 67 133 2.0 6.0 0.00 0.00 0.00 72 1016.3
20260502161908 67 142 5.0 9.0 0.00 0.00 0.00 73 1016.4
20260502161407 66 152 3.0 8.0 0.00 0.00 0.00 75 1016.3
20260502160907 66 98 1.0 6.0 0.00 0.00 0.00 78 1016.4
20260502160407 66 124 1.0 8.0 0.00 0.00 0.00 77 1016.4
20260502151907 64 135 5.0 9.0 0.00 0.00 0.00 82 1017.0
20260502151406 65 124 5.0 7.0 0.00 0.00 0.00 79 1017.0
20260502150906 66 120 3.0 9.0 0.00 0.00 0.00 77 1017.1
20260502150406 66 126 5.0 8.0 0.00 0.00 0.00 75 1017.1
20260502130407 67 82 6.0 12.0 0.00 0.00 0.00 66 1017.8
20260502123407 68 86 3.0 12.0 0.00 0.00 0.00 60 1017.7
20260502122906 68 93 6.0 10.0 0.00 0.00 0.00 59 1017.8
20260502121407 69 116 5.0 10.0 0.00 0.00 0.00 57 1017.8
20260502120906 69 113 5.0 12.0 0.00 0.00 0.00 57 1017.8
20260502120407 68 91 3.0 7.0 0.00 0.00 0.00 58 1017.9
20260502115406 69 94 3.0 7.0 0.00 0.00 0.00 56 1018.0
20260502113406 69 61 3.0 9.0 0.00 0.00 0.00 54 1018.2
20260502112906 69 93 2.0 6.0 0.00 0.00 0.00 56 1018.1
20260502112406 69 127 4.0 7.0 0.00 0.00 0.00 55 1018.1
20260502111906 68 46 0.0 1.0 0.00 0.00 0.00 55 1018.1
20260502111406 69 45 6.0 10.0 0.00 0.00 0.00 54 1018.2
20260502110906 69 110 7.0 10.0 0.00 0.00 0.00 55 1018.3
20260502110406 68 107 3.0 9.0 0.00 0.00 0.00 57 1018.3
20260502105906 68 53 2.0 6.0 0.00 0.00 0.00 57 1018.3
20260502105406 68 47 3.0 8.0 0.00 0.00 0.00 58 1018.3
20260502104907 67 55 5.0 9.0 0.00 0.00 0.00 58 1018.2
20260502104407 67 40 1.0 7.0 0.00 0.00 0.00 57 1018.3
20260502103906 67 83 3.0 8.0 0.00 0.00 0.00 58 1018.3
20260502103406 67 49 1.0 6.0 0.00 0.00 0.00 57 1018.3
20260502102906 68 91 3.0 9.0 0.00 0.00 0.00 57 1018.4
20260502102407 67 86 5.0 8.0 0.00 0.00 0.00 58 1018.3
20260502101906 67 79 5.0 8.0 0.00 0.00 0.00 57 1018.4
20260502101406 67 63 1.0 9.0 0.00 0.00 0.00 58 1018.3
20260502100907 67 125 3.0 8.0 0.00 0.00 0.00 59 1018.3
20260502100406 66 288 0.0 1.0 0.00 0.00 0.00 63 1018.3
20260502090906 63 107 1.0 3.0 0.00 0.00 0.00 73 1018.4
20260502071406 57 325 0.0 1.0 0.00 0.00 0.00 86 1018.3
20260502070906 57 325 0.0 0.0 0.00 0.00 0.00 86 1018.4
20260502070406 57 325 0.0 0.0 0.00 0.00 0.00 86 1018.3
20260502065907 57 325 0.0 2.0 0.00 0.00 0.00 87 1018.3
20260502065405 56 325 0.0 0.0 0.00 0.00 0.00 88 1018.2
20260502064907 56 325 0.0 0.0 0.00 0.00 0.00 88 1018.2
20260502064406 56 325 0.0 0.0 0.00 0.00 0.00 88 1018.2
20260502063906 56 325 0.0 0.0 0.00 0.00 0.00 87 1018.3
20260502062906 56 325 0.0 0.0 0.00 0.00 0.00 87 1018.1
20260502062406 56 325 0.0 3.0 0.00 0.00 0.00 86 1018.1
20260502061406 56 324 0.0 2.0 0.00 0.00 0.00 86 1017.9
20260502060406 56 324 0.0 0.0 0.00 0.00 0.00 86 1017.6
20260502055406 56 324 0.0 1.0 0.00 0.00 0.00 87 1017.7
20260502054906 56 324 0.0 0.0 0.00 0.00 0.00 87 1017.6
20260502054405 56 324 0.0 0.0 0.00 0.00 0.00 88 1017.6
20260502053906 56 324 0.0 0.0 0.00 0.00 0.00 88 1017.6
20260502053406 56 324 0.0 0.0 0.00 0.00 0.00 88 1017.7
20260502052906 56 324 0.0 0.0 0.00 0.00 0.00 88 1017.8
20260502052406 56 324 0.0 0.0 0.00 0.00 0.00 88 1017.9
20260502050906 57 324 2.0 3.0 0.00 0.00 0.00 85 1017.7
20260502045406 57 244 3.0 6.0 0.00 0.00 0.00 84 1017.6
20260502044906 57 284 2.0 3.0 0.00 0.00 0.00 83 1017.7
20260502044406 57 199 0.0 0.0 0.00 0.00 0.00 84 1017.9
20260502043906 57 199 0.0 2.0 0.00 0.00 0.00 84 1018.0
20260502043406 57 199 2.0 3.0 0.00 0.00 0.00 83 1017.9
20260502042906 57 195 2.0 5.0 0.00 0.00 0.00 83 1017.9
20260502040906 57 92 1.0 3.0 0.00 0.00 0.00 84 1018.3
20260502040406 57 92 0.0 1.0 0.00 0.00 0.00 84 1018.1
20260502035907 57 92 0.0 0.0 0.00 0.00 0.00 85 1018.1
20260502035408 57 92 0.0 0.0 0.00 0.00 0.00 85 1018.1
20260502034906 57 92 0.0 0.0 0.00 0.00 0.00 84 1018.2
20260502034406 57 92 0.0 0.0 0.00 0.00 0.00 84 1018.3